Dewpoint
32 33 34 34 34 33 33 33 33 33 34 36 38 39 39 38 36 34 35 37 36 35 35 34 35 37 39 41 41 41 40 40 40 40 40 41 41 41 42 42 42 42 42 43 43 42 42 42 42 42 41 41 41 41 41 41 42 42 43 43 42 42 42 42 42 42 41 41 41 40 40 40 40 39 39 39 39 38 38 38 39 39 40 41 42 43
31 33 33 34 33 33 33 33 33 33 34 35 36 37 37 36 34 33 33 35 34 33 32 31 32 34 36 39 40 40 40 40 40 40 40 40 41 41 41 42 42 42 42 43 43 42 42 42 42 41 41 40 40 40 40 41 42 42 42 42 42 42 42 42 42 41 41 40 40 40 39 39 39 39 39 39 38 38 39 39 39 40 40 41 42 43
30 31 32 33 33 33 32 33 33 34 34 35 36 36 35 34 34 32 31 33 33 31 30 30 30 31 33 37 39 40 40 40 40 39 40 40 41 41 41 42 42 42 42 43 43 43 42 42 42 41 41 40 40 39 40 40 41 41 42 42 42 41 41 41 40 40 40 39 39 39 39 39 39 39 39 39 39 39 39 39 40 40 41 41 42 43
30 30 31 32 33 33 32 33 33 34 34 35 35 35 34 34 33 32 31 31 30 30 29 29 29 30 30 34 37 39 40 40 40 39 40 40 40 41 41 42 42 42 42 43 43 43 42 42 42 41 40 40 39 39 39 40 40 41 41 41 41 41 40 40 39 39 39 39 39 39 39 39 39 39 39 39 39 39 39 40 40 40 41 41 42 43
29 30 31 31 32 32 33 33 34 34 35 34 34 34 33 33 32 32 31 30 30 29 29 28 28 28 28 31 35 39 39 39 39 39 40 40 40 41 41 41 42 42 42 42 43 43 43 42 42 41 40 40 39 39 39 39 40 40 40 40 40 40 39 39 39 39 39 39 39 39 39 39 39 39 39 39 39 39 39 40 40 40 41 41 42 42
29 30 30 31 31 32 32 33 34 34 34 34 33 33 32 32 32 31 30 30 29 29 29 28 28 27 27 29 34 38 39 39 39 39 40 40 40 41 41 41 42 42 42 42 42 43 43 42 42 41 41 40 40 39 39 39 39 40 40 40 40 39 39 39 39 39 39 39 39 39 39 39 39 39 39 39 39 39 39 40 40 40 41 41 42 42
28 29 30 30 31 31 31 32 33 34 33 33 32 32 31 31 31 30 30 30 29 29 29 29 28 28 27 30 33 37 38 38 39 39 39 40 40 40 40 41 41 42 42 42 42 43 43 42 42 41 41 40 40 39 39 39 39 39 39 39 39 39 39 39 39 39 39 39 39 39 39 39 39 39 39 39 39 39 39 40 40 40 40 41 41 42
27 28 29 29 30 30 30 31 32 33 33 32 31 31 30 30 30 30 30 30 29 29 29 29 28 28 27 28 31 34 34 36 37 39 39 39 39 40 40 41 41 41 42 42 42 43 43 42 42 42 41 40 40 39 39 39 39 39 39 39 39 39 39 39 39 39 39 39 39 39 39 39 39 39 39 38 38 39 39 39 40 40 40 40 41 41
27 27 27 27 28 29 29 30 31 32 32 31 30 30 30 29 29 30 30 30 29 29 29 28 28 28 27 26 29 31 33 34 35 36 37 38 38 39 40 40 41 41 41 42 42 42 43 43 42 42 41 41 40 40 39 39 39 39 39 39 39 39 39 39 39 39 39 39 39 39 39 39 39 39 39 38 38 39 39 39 39 40 40 40 40 40
27 27 26 27 27 28 28 29 30 30 31 30 30 29 29 29 29 29 29 29 30 30 29 28 28 27 27 26 26 29 32 34 35 37 38 37 38 39 39 40 40 41 41 41 42 42 43 43 42 42 41 41 40 40 40 39 39 39 39 39 39 39 39 39 39 39 39 39 39 39 39 39 39 39 38 38 38 39 39 39 39 39 39 39 39 39
27 27 26 26 27 27 28 28 28 29 30 29 29 29 29 29 28 28 28 28 29 30 30 29 28 27 27 26 26 27 30 31 33 35 37 38 38 39 39 39 40 40 40 41 41 42 42 42 42 42 42 41 40 40 40 39 39 39 39 39 39 39 39 39 39 39 39 39 39 39 39 39 39 38 38 38 38 39 39 39 39 39 39 39 39 39
28 27 27 26 26 27 27 28 29 29 29 29 29 28 28 28 28 28 28 28 28 29 29 30 29 28 27 26 26 27 28 28 29 31 33 34 36 36 37 37 38 39 39 40 41 41 42 42 42 42 42 41 41 40 40 40 40 39 39 39 39 39 39 39 39 39 39 39 39 39 39 39 38 38 38 38 38 38 38 38 38 38 38 38 38 38
29 28 27 27 26 26 27 28 28 28 28 28 28 28 27 28 28 27 27 27 27 28 29 29 29 29 28 27 27 27 27 26 27 28 30 31 32 34 34 35 35 37 38 38 39 40 42 42 42 42 42 41 41 40 40 40 40 40 39 39 39 39 39 39 38 38 38 38 38 39 38 38 38 38 38 38 38 38 38 38 38 38 37 37 38 38
29 28 27 26 26 26 26 26 26 27 27 28 28 28 28 28 28 27 26 26 27 28 29 29 29 29 28 28 28 27 27 26 27 27 28 29 30 31 32 33 34 35 35 36 37 38 41 41 41 41 41 41 41 40 40 40 40 39 39 39 39 39 39 38 38 38 38 38 38 38 38 38 38 38 38 38 38 38 38 38 38 37 37 37 37 37
29 28 26 25 25 25 25 26 26 25 26 26 27 27 27 28 28 28 26 26 27 29 29 28 28 28 28 28 28 28 27 27 26 26 27 28 29 30 31 32 32 33 34 34 34 36 39 39 39 38 39 39 40 40 40 40 39 39 39 39 39 39 38 38 38 38 38 38 37 37 37 37 37 38 38 38 38 38 38 37 37 37 37 37 37 36
28 28 26 25 25 25 25 25 25 25 25 26 26 27 26 27 27 28 27 26 27 28 29 28 27 27 28 29 30 30 29 27 26 26 26 27 28 29 30 30 31 31 31 32 32 33 34 35 35 36 36 38 39 39 39 40 39 39 39 39 39 38 38 38 38 37 37 37 37 37 37 37 37 38 38 38 38 38 37 37 37 37 36 36 36 36
28 28 27 25 25 24 25 25 25 25 25 25 26 26 26 26 27 28 28 27 27 27 28 27 26 26 26 28 29 30 30 28 26 26 26 26 28 29 30 30 30 30 30 30 30 30 31 32 33 33 34 37 38 39 39 39 39 39 39 38 38 38 38 38 37 37 37 37 37 37 37 37 37 37 38 38 37 37 37 36 36 36 36 36 35 35
28 27 27 26 25 24 24 24 25 25 25 25 25 26 26 26 27 28 28 27 27 27 27 27 26 25 24 25 27 29 30 28 26 26 25 25 26 28 30 30 30 29 29 29 29 29 29 30 30 31 33 36 37 38 38 38 38 38 38 38 38 38 37 37 37 37 37 37 37 37 37 37 37 37 37 37 37 36 36 36 36 36 36 35 35 34
28 27 26 25 25 24 23 24 24 25 25 25 25 26 26 26 27 28 28 27 27 26 26 26 25 24 22 24 26 29 30 28 27 25 24 24 25 27 29 30 30 29 28 28 29 29 28 29 30 33 34 36 36 37 37 37 37 38 38 38 38 37 37 37 37 36 37 37 37 37 37 37 37 37 37 37 36 36 36 36 36 36 35 35 34 34
28 27 26 25 24 24 23 24 24 25 25 25 26 26 26 27 27 28 27 27 27 26 26 26 25 24 22 24 27 30 29 28 27 25 24 24 25 27 29 30 30 29 28 28 28 28 28 28 30 32 35 35 36 36 36 36 37 37 38 37 37 37 37 36 36 36 36 37 37 37 37 37 37 37 36 36 36 35 36 36 36 35 35 35 34 34
28 27 26 25 24 23 22 23 25 25 27 27 27 27 26 27 27 28 28 27 27 26 26 26 25 25 24 25 28 30 29 28 26 25 25 24 25 27 30 29 29 28 28 28 28 29 29 29 29 31 34 35 36 36 36 36 37 37 37 37 37 36 36 36 36 36 36 36 36 36 37 36 36 36 35 35 35 35 35 35 35 35 35 34 34 34
28 27 26 26 25 24 23 24 26 28 29 29 28 27 26 27 27 28 28 28 27 27 27 26 26 26 27 28 29 30 29 27 26 26 25 25 25 26 30 30 29 28 28 28 28 29 29 29 30 31 35 36 36 36 36 37 37 37 37 37 36 36 36 36 36 36 36 36 36 36 36 36 36 35 35 35 35 35 35 35 35 34 34 34 34 34
28 27 26 26 25 25 25 26 28 29 30 29 28 28 28 28 28 28 28 28 28 27 27 28 29 30 30 30 30 30 29 28 28 27 26 25 25 26 30 30 29 28 28 28 28 29 30 30 30 32 35 36 36 36 36 37 37 37 37 36 36 36 36 36 36 36 36 36 36 36 36 36 35 35 35 35 35 35 35 34 34 34 34 34 34 34
28 27 26 26 27 27 27 27 28 29 30 29 29 29 31 30 29 29 29 29 29 28 28 29 29 29 30 30 30 29 29 29 29 28 27 26 26 27 30 30 29 29 29 29 29 29 30 30 30 32 35 36 36 36 36 37 37 37 36 36 36 36 36 36 36 36 35 35 35 36 36 35 35 35 35 35 35 34 34 34 34 34 34 34 34 34
30 29 29 29 30 31 29 30 30 30 30 30 30 30 31 31 31 30 30 30 29 28 28 27 27 27 28 30 30 29 29 29 29 29 28 26 26 27 30 30 30 29 29 30 30 30 29 30 30 31 33 34 35 36 37 37 36 36 36 36 36 35 35 35 35 35 35 35 35 35 35 35 35 35 35 34 34 34 34 34 34 34 34 34 34 34
33 33 33 34 35 36 35 34 34 34 33 31 31 31 31 31 31 30 30 29 28 28 27 26 25 26 27 28 29 29 29 29 30 29 28 27 26 27 29 30 30 29 30 30 30 30 29 30 30 30 31 32 35 37 36 36 36 36 36 36 35 35 35 35 35 35 35 35 35 35 35 35 34 34 34 34 34 34 34 34 34 34 34 34 34 34
37 37 37 38 39 39 39 39 38 38 37 35 34 32 32 31 30 29 28 28 28 28 27 25 25 25 26 27 28 28 29 29 29 29 29 27 26 26 28 30 30 30 30 30 30 30 30 30 30 29 30 30 33 36 36 36 36 35 35 35 35 35 35 35 35 35 34 35 35 35 34 34 34 34 34 34 34 34 33 33 33 33 34 33 33 33
39 39 39 39 39 40 40 40 39 39 38 37 36 35 33 30 29 28 28 28 28 28 26 25 25 25 25 26 27 28 29 30 30 29 29 27 27 27 28 29 30 29 29 29 30 31 32 30 30 29 28 29 31 33 35 35 35 35 35 35 35 35 34 34 34 34 34 34 34 34 34 34 34 34 34 34 34 33 33 33 33 33 33 33 32 32
39 39 39 38 39 39 39 39 39 39 38 38 37 36 33 30 28 28 28 28 28 27 26 26 25 25 25 26 27 28 29 30 30 30 30 28 27 27 28 29 30 29 29 28 29 29 29 29 29 28 28 30 30 31 33 34 34 34 34 34 34 34 34 34 34 34 34 34 34 34 34 34 33 33 33 33 33 33 33 33 33 33 32 32 31 30
38 37 37 37 37 38 38 38 38 38 38 38 37 36 33 30 29 28 28 29 28 27 26 26 26 25 25 26 27 27 28 29 30 30 30 28 27 28 29 29 29 29 29 28 27 26 26 27 28 28 28 30 30 29 29 31 32 33 33 33 34 34 34 33 33 33 33 33 33 33 33 33 33 33 33 33 33 33 33 33 33 32 32 31 30 30
35 35 34 34 34 34 35 35 36 37 38 38 37 35 33 30 29 29 29 29 29 28 27 26 26 26 26 26 26 26 27 29 30 31 30 28 28 28 29 29 29 29 29 28 26 25 23 25 27 28 28 28 28 28 28 29 30 30 30 30 31 33 34 33 32 32 32 32 32 32 32 33 33 33 33 33 33 33 33 33 33 32 32 30 30 29
34 34 34 33 33 33 33 33 34 34 35 36 36 34 33 31 30 30 30 29 29 28 27 27 27 27 27 27 26 26 27 29 31 31 30 29 29 29 30 29 29 28 28 28 26 25 22 23 25 26 27 26 26 26 27 28 28 28 28 28 29 30 33 33 32 32 32 32 32 32 32 32 32 32 33 33 33 33 33 33 33 32 31 30 29 29
34 34 33 33 32 32 31 32 32 32 33 34 34 34 33 32 31 30 30 30 30 29 28 27 27 27 28 28 28 28 29 30 31 32 32 30 30 30 30 30 29 28 28 27 26 24 23 22 23 24 25 25 25 26 27 28 28 27 27 27 27 28 31 32 32 32 33 33 33 33 33 32 32 32 32 32 32 32 32 32 32 32 31 30 29 28
34 34 34 33 32 32 31 31 31 31 32 32 33 33 33 32 32 32 32 31 31 30 29 29 28 28 28 28 28 29 30 30 32 33 33 31 30 30 30 29 29 28 27 27 26 25 24 23 23 23 24 25 25 26 26 27 28 28 26 27 26 27 28 30 30 30 32 32 31 31 32 32 32 32 32 32 31 31 31 31 31 31 31 30 29 28
34 34 34 33 33 32 32 32 31 31 32 32 32 33 33 32 32 32 32 33 32 32 31 30 30 29 29 29 29 29 30 31 33 34 33 31 30 30 30 29 29 28 27 26 25 25 24 24 24 24 23 24 25 25 26 26 27 28 27 27 27 26 27 28 28 29 30 29 29 28 29 29 29 30 31 31 31 31 31 31 31 31 31 30 30 29
34 34 34 34 33 33 32 32 32 32 32 32 32 33 33 33 33 33 33 33 33 33 33 32 32 31 31 30 30 30 30 32 33 34 34 32 30 30 29 29 29 28 27 26 25 24 23 24 25 25 25 24 23 24 25 26 27 27 27 27 27 27 27 27 27 27 27 27 27 27 27 27 27 28 30 31 31 31 30 30 30 30 30 30 30 30
34 34 34 34 33 33 33 33 33 33 33 33 33 33 34 34 33 33 33 33 34 34 34 34 34 34 34 33 32 31 31 32 33 34 34 32 30 30 29 29 29 28 27 26 25 25 24 24 24 25 25 23 23 23 24 25 26 26 26 27 27 27 27 28 28 27 26 27 27 27 27 27 28 28 30 31 31 31 31 31 31 30 30 30 30 29
34 34 34 34 34 33 33 33 33 33 33 33 34 34 34 34 34 34 34 33 33 33 34 34 34 34 35 35 33 32 32 33 33 33 33 31 30 30 29 28 29 28 27 26 26 25 25 24 23 23 23 23 24 25 25 25 25 25 25 26 26 26 27 28 28 27 27 27 28 29 30 29 29 28 29 30 30 29 29 28 29 30 30 29 29 28
33 33 33 34 34 34 34 34 34 34 34 34 34 34 35 35 35 34 34 34 34 33 33 34 34 34 34 34 34 34 33 33 32 32 32 31 30 30 29 29 28 28 28 27 26 25 25 24 23 22 22 22 23 24 25 25 24 24 24 25 25 25 26 26 27 27 27 27 28 29 29 28 27 27 26 26 26 26 25 25 26 27 27 26 27 27
33 33 33 33 34 34 34 34 34 34 34 35 35 35 36 36 35 35 35 34 34 34 34 34 34 34 34 35 35 34 34 33 33 33 32 32 31 30 30 29 28 28 28 27 27 26 25 25 24 24 24 23 23 24 25 24 24 25 25 25 24 25 26 26 25 25 25 25 25 26 26 25 25 25 25 25 25 25 24 24 24 25 25 24 23 23
32 32 32 33 33 34 34 34 34 35 35 35 35 36 36 36 36 36 35 35 34 34 34 34 34 34 34 34 34 33 33 33 33 33 32 31 31 31 30 30 29 29 29 28 27 27 26 25 25 25 25 25 25 25 25 25 26 27 27 25 24 25 25 27 26 25 25 24 24 25 26 26 26 26 26 26 25 25 24 23 23 23 24 23 22 21
32 32 32 32 33 33 34 34 35 35 36 35 35 35 36 36 36 35 35 34 34 34 35 34 34 34 33 33 33 33 32 32 33 32 32 31 31 31 31 30 30 29 29 29 28 28 28 27 26 26 25 25 25 25 25 26 26 27 27 26 25 25 26 26 25 24 23 23 23 24 27 26 25 25 25 25 24 24 25 24 24 25 25 24 22 21
32 31 31 32 32 33 34 34 35 35 35 35 35 35 36 36 36 35 35 34 34 34 35 35 34 34 33 33 33 33 32 32 33 33 33 31 31 31 31 30 30 30 30 29 28 28 29 28 28 27 27 27 26 26 25 26 26 26 26 26 26 25 24 23 22 21 22 23 23 23 24 24 24 24 24 25 24 24 24 25 27 27 26 24 23 22
31 31 31 31 32 33 34 34 34 34 34 34 35 35 35 36 36 35 35 34 34 34 34 34 34 33 33 32 33 33 33 33 33 33 34 33 33 32 32 31 30 30 30 29 28 28 28 29 28 28 28 28 27 26 26 26 25 25 25 25 25 25 24 23 22 21 22 22 23 22 21 23 22 22 23 23 23 23 22 22 22 23 24 24 23 22
31 30 31 31 32 33 33 33 33 34 34 34 34 34 35 35 36 35 34 34 34 34 34 34 33 32 31 31 32 32 32 33 33 33 34 34 34 34 33 32 31 30 30 29 28 28 28 28 28 28 29 28 28 27 26 26 25 25 26 26 26 25 23 24 24 23 22 22 22 22 21 21 21 21 21 21 21 21 21 21 21 21 22 22 22 21
30 30 30 31 32 32 33 33 33 33 34 34 34 34 34 35 35 35 34 34 34 33 33 33 32 31 30 30 31 31 31 32 32 33 33 34 34 34 34 33 33 32 31 30 29 28 28 27 27 28 28 28 28 27 27 26 26 25 25 26 25 25 24 24 24 23 22 22 22 22 21 21 21 21 21 20 20 20 21 21 21 21 21 21 21 21
30 30 30 31 32 32 33 33 33 33 33 33 34 34 34 34 35 34 34 34 33 33 33 32 32 31 30 30 30 30 30 30 31 32 32 33 33 33 33 33 33 33 33 32 31 30 30 29 29 28 28 27 27 27 27 27 26 26 25 25 24 24 23 23 23 23 23 24 23 22 20 21 21 20 20 20 20 20 21 21 21 21 21 21 21 21
30 30 31 31 32 32 32 33 33 33 33 33 33 34 34 34 34 34 34 33 33 32 32 32 31 30 30 30 30 30 30 30 30 30 31 32 32 32 32 32 32 33 33 33 32 32 32 31 30 30 29 27 27 26 26 26 26 26 25 25 24 23 23 23 23 23 24 24 22 21 21 21 21 20 19 20 20 20 20 21 21 21 21 21 21 21
31 31 31 32 32 32 32 32 32 32 32 32 33 33 34 34 34 34 33 33 33 32 31 31 30 30 30 30 30 30 31 30 30 30 30 31 31 31 31 31 31 30 31 30 30 30 30 30 30 30 30 29 28 26 26 25 25 25 24 25 24 24 23 23 24 24 25 24 23 22 21 22 22 21 21 20 20 20 20 20 20 20 21 21 21 21
32 32 32 32 32 32 32 32 32 32 32 32 32 33 33 34 34 34 34 33 32 32 31 30 30 30 30 30 30 30 30 30 30 30 30 30 30 30 30 30 30 30 29 28 28 27 27 26 27 29 31 30 29 27 25 25 24 23 23 23 24 23 23 23 24 24 25 24 23 22 20 21 22 23 22 21 21 20 20 20 20 20 20 20 21 21
33 33 33 33 33 33 33 33 33 32 32 32 32 32 32 33 33 33 33 33 32 31 31 30 30 30 30 30 30 30 30 30 30 29 29 30 30 29 29 29 29 28 27 26 26 25 25 23 22 23 26 30 31 30 27 25 23 22 22 22 23 23 23 23 23 24 25 24 23 22 21 21 22 22 22 21 21 20 19 19 19 19 20 20 20 20